Location: Unspecified
(0.0000°N, 0.0000°E)
Time: 13:18:13
(UTC+00:00)

N. Korean satellite - Pass Details

Date: 05 April 2020
Orbit: 454 x 507 km, 97.2° (Epoch: 01 April)

Event Time Altitude Azimuth Distance (km) Brightness Sun altitude
Rises 05:13:58 0° 14° (NNE) 2,453 10.4 -12.1°
Reaches altitude 10° 05:16:00 10° 17° (NNE) 1,587 9.5 -11.6°
Maximum altitude 05:19:22 70° 101° (E) 489 6.7 -10.8°
Drops below altitude 10° 05:22:49 10° 185° (S) 1,614 9.1 -9.9°
Sets 05:24:53 0° 187° (S) 2,500 10.0 -9.4°
